Terug naar catalogus

DMSP 5D-3 F19 DEB

ActiefSSO
NORAD 39632·DEBRIS·🇺🇸 United States

Gelanceerd Apr 3, 2014 vanaf Vandenberg Space Force Base

Loading…

Volgende Passages (komende 24 uur)

TLE

VersSource: Space-Track

Epoch: Sep 14, 2026, 10:51 UTC

1 39632U 14015C   26257.45209229  .00001062  00000-0  45933-3 0  9995
2 39632  98.6646 268.7318 0004365 204.2352 155.8624 14.26452278644483

Volg DMSP 5D-3 F19 DEB in realtime met AllMySat

Download on the App Store